Showing default

GEO-KOMPSAT-2B, 45246

Orbit data source: Space-Track

GEO-KOMPSAT-2B, 45246 is a payload satellite owned by KARI (KR) in GEO that was launched on Tue, 18 Feb 2020 UTC via an ARIANE 5ECA+ launch vehicle from the French Guiana (FRGUI). Payload-class satellites include a variety of spacecraft equipped with specific instruments for various scientific and technological missions. These include communications satellites like Starlink; space stations such as the ISS; scientific satellites like the Hubble; Earth observation satellites from companies like Planet Labs, Umbra, and HawkEye 360; GPS; miniature CubeSats for education and research; and military/defense satellites.

Not visible in the next 10 days
Identifier
45246, 2020-013B
Orbit
GEO
Country
Flag of UnknownUnknown / SKOR
Related business
Manufacturer
KARI
Mission
Operational Civil Weather
Bus & Motor
GK2, S400?
Mass
3,379 kg wet, ~2,500 kg dry
Launch date (UTC)
2020-02-18 (6 years ago)
Launch vehicle
ARIANE 5ECA+
Launch site
French Guiana (FRGUI)
Object type
Payload
Rocket body
Debris
Shape & HBR
Box + 1 Pan, Unknown HBR
Radar Cross Section
15.287 m², Large (>1 m²)

Expand to show TLE details & history
Last TLE update: 12 hours ago

TLE from 12 hours ago
0 GEO-KOMPSAT-2B
1 45246U 20013B   25303.25530875 -.00000334  00000-0  00000-0 0  9996
2 45246   0.0139 275.7853 0002181 335.6741   7.5494  1.00269172 20979
Epoch: 2025-10-30T06:07Z
TLE epoch observation values (Epoch: 2025-10-30T06:07:38.676Z)
Latitude
-0.00221°
Longitude
128.24851°
Altitude
35,777.697 km
Speed
3.075 km/s
True Right ascension
17h 15m 54s
True Declination
0° 00' 08"
Sunlit
Object was in daylight at epoch
Visualization orbit readout
Latitude
Unknown
Longitude
Unknown
Altitude
Unknown
Speed
Unknown
Apparent Right ascension
Unknown
Apparent Declination
Unknown
Sunlit
N/A
Visualization observer readout
Local Sidereal Time
14:11:32
Azimuth
Unknown
Elevation
Unknown
Doppler factor
Unknown
Orbital elements
Apogee altitude
35,797.594 km
Perigee altitude
35,779.201 km
Semi-major axis
42,166.535 km
Eccentricity
0.00022
Inclination
0.0139°
RAAN
275.7853°
Arg. of periapsis
335.6741°
True anomaly
7.55268°
Mean anomaly
7.5494°
Eccentric anomaly
7.55104°
Mean motion
0.25066 °/min
Orbital period
1,436.19 mins
BSTAR
0
Loading maneuver chart data...
Computing Atmospheric mass density...
Loading historical data...
Loading historical data...
Loading historical data...
Loading historical data...
Loading historical data...
Loading historical data...
Loading historical data...
Other satellites on launch #13 in the year 2020 (2020-02-18 UTC)

Documentation

Showing up to 5 results
|